Weather History for Providence, RI

Change the Weather History Date:

Monday, October 8, 2012

  Actual Average Record
Temperature  
Mean Temperature 49 °F 56 °F  
Max Temperature 57 °F 66 °F 82 °F (1931)
Min Temperature 40 °F 46 °F 27 °F (1954)
Degree Days  
Heating Degree Days 16 9  
Month to date heating degree days 40 65  
Since 1 July heating degree days 116 162  
Cooling Degree Days 0 0  
Month to date cooling degree days 1 6  
Year to date cooling degree days 831 742  
Moisture  
Dew Point 43 °F    
Average Humidity 74    
Maximum Humidity 92    
Minimum Humidity 55    
Precipitation  
Precipitation T in 0.13 in 2.06 in (1996)
Month to date precipitation 0.81 1.02  
Year to date precipitation 31.91 35.54  
Snow  
Snow 0.00 in 0.00 in 0.00 in (2013)
Month to date snowfall 0.0 0.0  
Since 1 July snowfall 0.0 0.0  
Since 1 September snowfall 0.0 0.0  
Snow Depth 0.00 in    
Sea Level Pressure  
Sea Level Pressure 30.22 in    
Wind  
Wind Speed 4 mph (NNW)    
Max Wind Speed 12 mph    
Max Gust Speed 16 mph    
Visibility 10 miles    
Events Fog , Rain    
T = Trace of Precipitation, MM = Missing Value Source: NWS Daily Summary

Daily Weather History Graph

Daily Weather History Graph

Search for Another Location

Airport:

Trip Planner

Search our weather history database for the weather conditions in past years. The results will help you decide how hot, cold, wet, or windy it might be!

Date:

Astronomy

Oct. 08, 2012 Rise Set
Actual Time 6:50 AM EDT 6:14 PM EDT
Civil Twilight 6:22 AM EDT 6:42 PM EDT
Nautical Twilight 5:50 AM EDT 7:14 PM EDT
Astronomical Twilight 5:18 AM EDT 7:47 PM EDT
Moon No Moon Rise 2:07 PM EDT (10/8)
Length of Visible Light 12h 19m
Length of Day
11h 24m
Waning Gibbous, 46% of the Moon is Illuminated
Oct 8
Waning Gibbous
Oct 15
New
Oct 21
First Quarter
Oct 29
Full
Nov 6
Last Quarter

Hourly Weather History & Observations

Time (EDT) Temp. Windchill Dew Point Humidity Pressure Visibility Wind Dir Wind Speed Gust Speed Precip Events Conditions
12:51 AM 48.0 °F - 45.0 °F 89% 30.09 in 10.0 mi WNW 5.8 mph - 0.02 in Rain Light Rain
1:51 AM 48.0 °F - 44.1 °F 86% 30.09 in 10.0 mi WNW 4.6 mph - 0.00 in   Overcast
2:51 AM 46.0 °F 44.8 °F 42.1 °F 86% 30.09 in 10.0 mi NW 3.5 mph - N/A   Clear
3:51 AM 44.6 °F - 42.8 °F 93% 30.10 in 10.0 mi Calm Calm - N/A   Clear
4:51 AM 44.1 °F - 41.0 °F 89% 30.13 in 10.0 mi Calm Calm - N/A   Clear
5:51 AM 42.1 °F 40.2 °F 39.9 °F 92% 30.15 in 10.0 mi NNE 3.5 mph - N/A   Clear
6:51 AM 42.1 °F - 39.9 °F 92% 30.16 in 10.0 mi Calm Calm - N/A Fog Patches of Fog
7:51 AM 44.1 °F 42.5 °F 42.1 °F 93% 30.19 in 10.0 mi WNW 3.5 mph - N/A   Scattered Clouds
8:51 AM 48.9 °F - 43.0 °F 80% 30.23 in 10.0 mi NNW 6.9 mph - N/A   Scattered Clouds
9:51 AM 53.1 °F - 43.0 °F 69% 30.24 in 10.0 mi North 8.1 mph - N/A   Scattered Clouds
10:51 AM 54.0 °F - 41.0 °F 62% 30.25 in 10.0 mi North 8.1 mph - N/A   Mostly Cloudy
11:51 AM 55.9 °F - 41.0 °F 57% 30.25 in 10.0 mi NNE 4.6 mph - N/A   Mostly Cloudy
12:51 PM 55.0 °F - 39.0 °F 55% 30.24 in 10.0 mi NE 3.5 mph - N/A   Mostly Cloudy
1:51 PM 55.0 °F - 41.0 °F 59% 30.26 in 10.0 mi SSE 6.9 mph - N/A   Overcast
2:51 PM 55.0 °F - 42.1 °F 62% 30.27 in 10.0 mi South 6.9 mph - N/A   Overcast
3:51 PM 55.9 °F - 42.1 °F 60% 30.25 in 10.0 mi South 6.9 mph - N/A   Overcast
4:51 PM 55.0 °F - 43.0 °F 64% 30.26 in 10.0 mi South 5.8 mph - N/A   Overcast
5:51 PM 53.1 °F - 44.1 °F 71% 30.27 in 10.0 mi Calm Calm - N/A   Overcast
6:51 PM 52.0 °F - 45.0 °F 77% 30.30 in 10.0 mi SW 4.6 mph - N/A   Overcast
7:51 PM 51.8 °F - 44.6 °F 76% 30.29 in 10.0 mi WSW 3.5 mph - N/A   Overcast
8:51 PM 51.1 °F - 45.0 °F 80% 30.31 in 10.0 mi Calm Calm - N/A   Mostly Cloudy
9:51 PM 51.1 °F - 45.0 °F 80% 30.30 in 10.0 mi North 3.5 mph - N/A   Overcast
10:51 PM 50.0 °F - 46.0 °F 86% 30.30 in 10.0 mi NE 5.8 mph - N/A   Overcast
11:51 PM 50.0 °F - 46.0 °F 86% 30.28 in 10.0 mi NE 5.8 mph - N/A   Overcast